Погода Брохово

Погода Брохово : погода сейчас, прогноз погоды и архив. Всё, что Вы хотите узнать о погоде Брохово!

Поиск расширенной информации на нашем сайте:

Другие новости

Новости СМИ2

Главная страница сайта

Новости сайта

03.07.2017

Напоминаем, что на нашем специализированном сайте Метеоцентр.Азия вы можете получить высокодетализированные автоматические прогнозы погоды по пунктам России, СНГ и мира в авиационном формате (включающие направление и скорость ветра, видимость, явления погоды, количество и форму облачности, нижнюю и верхнюю границу облачности).


Погода Брохово - сегодня

Время (UTC), дата Ветер
(°,м/с) 
Видим.   Явления Облачность Т
(°С)
Тd
(°С)
f(%) Тe
(°С)
Pmin
(гПа)
dP
(гПа)
Po
(мм)
O2
(г/м3)
Тmin Tmax R s Состояние
почвы
12 09.11.18 270 (З) 7{13}  20000 м  позёмок  ясно 
-13.4 -21.1 52 -20  1029.5  1.7  772  329           
15 09.11.18 280 (З) 8-11{13}  н/о    н/о 
-13.8 -21.1 54 -21  1031.1  1.6  773  330           
21 09.11.18 280 (З) 6{11}  20000 м  позёмок  ясно 
-14 -22 51 -20  1033.9  1.1  775  331  -14.3      13  неравномерный
сухой снег
100% 
00 10.11.18 250 (З) 20000 м    ясно 
-11.8 -20.1 50 -16  1034.9  776  328           
03 10.11.18 230 (ЮЗ) 20000 м    ясно 
-9.3 -18.6 47 -14  1035.1  0.2  776  325           
06 10.11.18 260 (З) 20000 м    3/0 верхняя 
[Ci fib]
-11.5 -16 69 -15  1035.2  0.2  776  328           
12 10.11.18 280 (З) 20000 м    ясно 
-13.2 -20.1 56 -18  1036.8  0.6  777  331           
15 10.11.18 290 (З) 20000 м    ясно 
-15.4 -20.1 67 -20  1036.7  -0.1  777  333           
18 10.11.18 300 (СЗ) 20000 м    ясно 
-14.9 -19.7 67 -20  1037.3  0.6  777  333           
21 10.11.18 310 (СЗ) н/о    н/о 
-14.6 -20.1 63 -19  1038.2  0.9  778  333  -15.5         
00 11.11.18 290 (З) н/о    н/о 
-14.1 -18.9 67 -18  1038.4  0.2  778  332           
03 11.11.18 320 (СЗ) 20000 м    6/6 1000 м 
[Sc]
-10 -14.2 71 -14  1037.2  -1.2  777  326           
06 11.11.18 060 (СВ) 20000 м    9/9 1000 м 
[Sc]
-2.4 -7.5 68 -7  1036.7  -0.6  777  317           
09 11.11.18 040 (СВ) 8-10{11}  20000 м  позёмок  10/10 600 м 
[Sc]
-2.7 -6.2 77 -8  1036.6  0.1  777  317    -2.3       
21 11.11.18 070 (В) 11-15{16}  20000 м  позёмок  10/10 1000 м 
[Sc]
-2.4 -5.7 78 -8  1031.3  -0.9  773  315  -3.7      14  неравномерный
мокрый или
старый снег
100% 
03 12.11.18 060 (СВ) 13-18{20}  н/о    н/о 
-2.1 -4.4 84 -8  1027.6  -1.9  770  313           
09 12.11.18 050 (СВ) 16-21{21}  0500 м  сильная метель{ливн. осадки}  ?/?  
-1.5 -1.8 98 -8  1026  -0.8  769  312    -1.5  0.9     
21 12.11.18 060 (СВ) 13-18{21}  2000 м  метель  10/10 600 м кучево-дожд. 
[Cb cap]
+1 -0.5 90 -4  1023.1  -0.2  767  308  -1.6    10  неравномерный
мокрый или
старый снег
100% 
00 13.11.18 060 (СВ) 13-19{23}  4000 м  слаб. ливневой снег  10/10 300 м кучево-дожд. 
[Cb cap]
+0.9 -0.9 88 -4  1023.3  0.2  767  308           
09 13.11.18 060 (СВ) 15-19{21}  20000 м  позёмок{ливн. осадки}  10/10 300 м кучево-дожд. 
[Cb cap]
+0.6 -1.1 88 -5  1023.6  0.1  767  309    +1.1     
21 13.11.18 050 (СВ) 12-15{17}  20000 м    10/10 300 м кучево-дожд. 
[Cb cap]
-0.7 -2.3 89 -6  1025.1  0.5  768  311  -0.7      11  равномерный
мокрый или
старый снег
100% 
00 14.11.18 050 (СВ) 11-14{15}  20000 м  в посл. час ливневой снег  10/10 300 м кучево-дожд. 
[Cb cap]
-0.7 -2.8 86 -6  1025.6  0.5  769  311  -0.9         
09 14.11.18 040 (СВ) 9-11{12}  20000 м    10/10 600 м кучево-дожд. 
[Cb cap]
-1.3 -3.5 85 -6  1026.3  0.3  769  312    -0.6  0.0     
15 14.11.18 060 (СВ) 6{11}  20000 м    10/10 600 м кучево-дожд. 
[Cb cap]
-1.7 -5 78 -5  1026.1  -0.3  769  312           
18 14.11.18 030 (СВ) 7{10}  20000 м    10/10 600 м кучево-дожд. 
[Cb cap]
-2.3 -4.6 84 -7  1025.7  -0.4  769  313           
Время (UTC), дата Ветер
(°,м/с) 
Видим.   Явления Облачность Т
(°С)
Тd
(°С)
f(%) Тe
(°С)
Pmin
(гПа)
dP
(гПа)
Po
(мм)
O2
(г/м3)
Тmin Tmax R s Состояние
почвы

Для получения пояснительной информации подведите курсор к названию столбца.

ПОГОДА Брохово - архив

Всё, что Вы хотите узнать о погоде Брохово - удобно и подробно!

Выберите нужную дату (начиная с 1 января 2015* года) и нажмите кнопку "Найти".
Будут отображены архивные сводки погоды по пункту Брохово, начиная с указанной даты.


Отображать данные в формате CSV (для использования в таблицах Excel)


Внимание! Наш архив погоды предназначен исключительно для личного некоммерческого использования в познавательных целях. Если Вам необходимы официальные справки о состоянии погоды (для производственных, юридических, коммерческих и т.п. целей), обращайтесь в органы Росгидромета.

*Примечание: данная дата относится к архиву по метеостанциям СССР (Россия, СНГ, Балтия).
Архив по метеостанциям Зарубежной Европы и Азии (кроме Китая) хранится 10 дней, по другим регионам земного шара (Китай, Африка, Америка, Австралия, Океания) - 1 день.

Брохово - район местоположения метеостанции


Название, широта, долгота, высота метеостанции:
Брохово 59.7°ш. 154.3°д. 5 м над ур. моря [Российская Федерация]

Дополнительная информация

В oтличие oт бoльшинства пoгoдных сайтoв мы публикуем пoдрoбную метеoинфoрмацию в детальнoм прoфессиoнальнoм фoрмате.

Характеристики температуры и влажнoсти вoздуха измеряются на высoте 2 м в тени вдали oт зданий и деревьев.
Скoрoсть ветра измеряется на высoте 10 м (на урoвне рoста челoвека скoрoсть ветра ниже в 1.5-2 раза). Если метеoстанция нахoдится в гoрoде или в лесу, тo скoрoсть ветра занижена на 2-4 м/с пo сравнению с oткрытым местoм. Скoрoсть ветра над акватoриями крупных рек и oзёр, а также на вершинах хoлмoв на 2-5 м/с выше, чем в oбычных услoвиях.
Атмoсфернoе давление в разных тoчках местнoсти мoжет значительнo oтличаться oт давления на метеoстанции, в зависимoсти oт услoвий рельефа (при пoдъёме на 10 м давление пoнижается примернo на 1 мм рт.ст.).